Location: Crescent
(42.8242°N, 73.7329°W)
Time: 00:54:12
(UTC+00:00)

Transit 4A - Pass Details

Date: 18 February 2026
Orbit: 864 x 977 km, 66.8° (Epoch: 10 March)

Event Time Altitude Azimuth Distance (km) Brightness Sun altitude
Rises 18:05:34 0° 323° (NW) 3,618 10.7 34.2°
Reaches altitude 10° 18:08:11 10° 318° (NW) 2,684 10.1 34.1°
Maximum altitude 18:14:06 45° 248° (WSW) 1,298 9.7 33.7°
Drops below altitude 10° 18:20:05 10° 178° (S) 2,713 11.5 33.3°
Sets 18:22:45 0° 172° (S) 3,660 11.8 33.2°
